www.pogodaiklimat.ru

Погода и климат >> Архив погоды >> Россия >> Калмыкия >> Ики-Бурул


ПОГОДА в Ики-Буруле

  • Прогноз погоды в Ики-Буруле
  • Монитор погоды в Ики-Буруле

АРХИВ ПОГОДЫ в Ики-Буруле

Время (UTC), дата Ветер
(напр.,м/с)
 
Видим.   Явления Облачность Т
(С)
Тd
(С)
f
(%)
Тe
(С)
Тes
(С)
Комфортность P
(гПа)
Po
(гПа)
Тmin
(С)
Tmax
(С)
R
(мм)
R24
(мм)
S
(см)
21 18.08 В 3 20 км ясно +22.7 +12.3 52 +25 +25 комфорт 1010.8 997.8
00 19.08 В 2 20 км 9/0
[Ac trans]
+21.3 +13.7 62 +24 +24 комфорт 1011.3 998.3
03 19.08 В 2 20 км 6/0
[Ac cast]
+19.5 +13.6 69 +22 +22 комфорт 1012.3 999.1 +19.2
06 19.08 СВ 1 20 км 4/0
[Cc]
+27.6 +16.9 52 +31 +41 душно 1012.9 1000.1
09 19.08 Ю 2 20 км 5/0
[Ac trans Ci sp]
+32.8 +19.2 45 +38 +50 очень
душно
1013.0 1000.4
12 19.08 Ю 3 20 км 5/5 1000 м
[Cu hum]
+35.3 +18.3 37 +40 +43 очень
душно
1012.6 1000.1
15 19.08 ЮВ 2 20 км 3/0
[Ac cast]
+34.5 +16.1 33 +37 +37 очень
душно
1013.1 1000.5 +35.7
18 19.08 ЮВ 4 20 км 3/0
[Ac cast]
+29.3 +11.7 34 +30 +30 жарко 1015.1 1002.3
21 19.08 В 4 20 км ясно +23.1 +14.4 58 +27 +27 душно 1015.7 1002.7
00 20.08 В 3 20 км ясно +19.3 +16.4 83 +21 +21 комфорт 1016.2 1003.0
03 20.08 В 3 20 км 6/0
[Ac cast]
+18.9 +16.2 84 +20 +21 1016.5 1003.3 +18.5
06 20.08 ЮВ 6-12
{12}
20 км 8/0
[Ac trans Ci fib]
+29.9 +11.7 33 +31 +33 жарко 1016.3 1003.6
09 20.08 ЮВ 5
{12}
20 км 8/0
[Ac cast Cc]
+36.1 +6.6 16 +34 +39 очень
жарко
1015.5 1003.0
12 20.08 ЮВ 5-10
{13}
20 км 6/1 1500 м
[Cu hum Ac cast Ci sp]
+38.4 +6.8 15 +36 +39 очень
жарко
1013.9 1001.5
15 20.08 ЮВ 4
{13}
20 км 3/0
[Ac cast Ci fib]
+34.3 +6.9 18 +32 +32 жарко 1015.2 1002.5 +38.6
18 20.08 В 5 20 км ясно +26.7 +6.9 28 +26 +26 жарко 1016.2 1003.3
21 20.08 В 4 20 км 1/0
[Ci fib]
+22.1 +9.7 45 +24 +24 комфорт 1016.2 1003.1
00 21.08 В 4 20 км ясно +19.3 +13.0 67 +21 +21 комфорт 1016.3 1003.1
03 21.08 В 3 20 км ясно +18.8 +13.7 72 +20 +20 1016.6 1003.3 +17.9
06 21.08 В 3 20 км 3/0
[Ci fib]
+30.2 +10.6 30 +30 +37 жарко 1016.3 1003.6
09 21.08 В 4 20 км 5/0
[Ac cast Ci fib]
+35.0 +6.4 17 +33 +40 жарко 1014.7 1002.1
12 21.08 В 5
{10}
20 км 3/0
[Ac cast]
+37.7 +5.7 14 +35 +39 очень
жарко
1012.8 1000.3
15 21.08 В 5
{10}
20 км ясно +36.2 +2.8 12 +33 +33 жарко 1012.1 999.6 +38.1
18 21.08 В 3 20 км ясно +27.8 +2.6 20 +26 +26 жарко 1013.3 1000.4
21 21.08 В 3 20 км ясно +24.9 +5.7 29 +25 +25 комфорт 1013.5 1000.5
00 22.08 СВ 3 20 км ясно +23.1 +6.4 34 +24 +24 комфорт 1013.1 1000.1
03 22.08 В 2 20 км ясно +21.6 +7.5 40 +23 +23 комфорт 1013.9 1000.8 +20.9
06 22.08 В 3 20 км ясно +31.5 +6.6 21 +30 +37 жарко 1013.5 1000.8
09 22.08 В 4 20 км ясно +36.4 +4.7 14 +34 +44 очень
жарко
1012.2 999.7
12 22.08 В 4
{11}
20 км ясно +38.0 +3.0 11 +35 +40 очень
жарко
1011.1 998.6
15 22.08 В 3 20 км ясно +36.5 +3.9 13 +33 +34 жарко 1010.9 998.4 +38.2
18 22.08 В 3 20 км ясно +27.8 +7.0 27 +27 +27 жарко 1012.8 1000.0
21 22.08 В 3 20 км ясно +24.6 +8.9 37 +25 +25 комфорт 1012.9 1000.0
00 23.08 В 1 20 км 6/0
[Ci fib]
+19.3 +11.7 61 +22 +22 комфорт 1013.4 1000.2
03 23.08 СВ 4 20 км 8/0
[Ci]
+22.7 +12.1 51 +25 +25 комфорт 1013.6 1000.5 +19.2
06 23.08 В 6-11
{11}
20 км 3/0
[Ci sp]
+32.8 +7.4 21 +31 +34 жарко 1013.2 1000.6
09 23.08 В 5-11
{12}
20 км 9/0
[Ac cast Ci]
+36.9 +3.9 13 +34 +39 очень
жарко
1011.9 999.4
12 23.08 ЮВ 4
{12}
20 км 9/0
[Ac As]
+37.7 +6.9 15 +35 +37 очень
жарко
1011.0 998.6
15 23.08 ЮВ 2 20 км 9/0
[Ac cast Ci]
+35.4 +7.9 19 +34 +34 очень
жарко
1011.5 999.0 +38.2
18 23.08 В 2 20 км 3/0
[Ac trans]
+27.9 +7.3 27 +27 +27 жарко 1013.3 1000.4
21 23.08 В 3 20 км 9/0
[Ac cast Ci]
+27.2 +12.4 40 +29 +29 жарко 1012.8 999.9
00 24.08 СВ 4 20 км 3/0
[Cc]
+23.8 +14.3 55 +26 +26 жарко 1012.6 999.6
03 24.08 СВ 3 20 км 9/0
[Ac cast Ci]
+23.5 +12.5 50 +25 +26 комфорт 1013.3 1000.2 +22.8
06 24.08 СВ 4 20 км 9/3 1000 м
[Cb cap Ac cast Ci]
+29.1 +13.5 38 +31 +33 жарко 1013.3 1000.5
09 24.08 В 4 20 км гроза без осадков 9/6 1000 м
[Cb cap Ci sp]
+33.8 +13.2 29 +35 +38 очень
жарко
1012.0 999.4
12 24.08 В 5
{11}
20 км {гроза} 10/5 1500 м
[Cb cap Ac cast Ci sp]
+35.6 +9.3 20 +34 +35 очень
жарко
1011.3 998.8
15 24.08 В 3
{12}
20 км 10/4 1500 м
[Cb cap Ac cast Ci sp]
+33.6 +9.8 23 +33 +33 жарко 1011.6 999.1 +36.5
18 24.08 Ю 3
{10}
20 км 10/3 1000 м
[Cb cap Ac trans Ci sp]
+30.3 +15.6 41 +33 +33 душно 1013.0 1000.3
21 24.08 В 2 20 км 3/0
[Ci fib]
+24.9 +17.4 63 +29 +29 душно 1013.2 1000.2
00 25.08 В 2 20 км 8/0
[Ac trans Ci sp]
+22.3 +18.4 79 +28 +28 душно 1013.2 1000.1
03 25.08 В 2 20 км 10/3 600 м
[Cb cap Ac und]
+21.7 +17.5 77 +26 +26 душно 1013.8 1000.7 +21.1
06 25.08 В 2 20 км 9/0
[Ac As Ci sp]
+25.9 +18.3 63 +31 +34 очень
душно
1015.1 1002.2
09 25.08 С 1
{12}
10 км слаб. ливневой дождь 10/8 600 м
[Cb cap Ac und]
+22.6 +17.3 72 +27 +28 душно 1016.0 1002.9
12 25.08 В 3 10 км слаб. ливневой дождь 10/8 600 м
[Cb cap Ac und]
+23.3 +18.5 74 +29 +30 душно 1016.6 1003.5
15 25.08 СВ 2 20 км {ливн. осадки} 10/8 600 м
[Cb cap Ac und]
+23.2 +15.5 62 +27 +27 душно 1016.7 1003.6 +26.4 3
18 25.08 СЗ 2 20 км {ливн. осадки} 10/5 600 м
[Cb cap Ac und]
+22.1 +15.9 68 +26 +26 душно 1017.6 1004.5

 

Местоположение метеостанции Ики-Бурул (Калмыкия, Россия): широта 45.80 долгота 44.63 высота над уровнем моря 113 м.

В архиве по умолчанию представлена погода в Ики-Буруле за последнюю неделю. Архивные данные за месяц целиком и за предыдущие месяцы, начиная с января 2011 года, Вы можете получить, выбрав интересующий диапазон дат из раскрывающегося списка и нажав кнопку "Ввод!".


*Определитесь, кто Вы:
робот инопланетянин человек

Внимание! Время в таблицах - всемирное. Для получения местного времени необходимо прибавить поправку, которая равна 3 ч.

Смотрите также архив погоды в соседних городах и на ближайших метеорологических станциях:

Погода в Арзгире (Ставропольский край, Россия) (56 км)
Погода в Элисте (Калмыкия, Россия) (67 км)
Погода в Яшкуле (Калмыкия, Россия) (70 км)
Погода в Дивном (Ставропольский край, Россия) (100 км)
Погода в Ремонтном (Ростовская область, Россия) (113 км)
Погода в Комсомольском (Калмыкия, Россия) (120 км)
Погода в Буденновске (Ставропольский край, Россия) (120 км)
Погода в Благодарном (Ставропольский край, Россия) (121 км)
Погода в Утте (Калмыкия, Россия) (125 км)
Погода в Светлограде (Ставропольский край, Россия) (147 км)

Пояснения к столбцам:

Ветер - указаны скорость ветра в м/с - средняя за 10 мин, порывы в срок и между сроками (в фигурных скобках) и направление, откуда дует ветер: С - северный, СВ - северо-восточный, В - восточный, ЮВ - юго-восточный, Ю - южный, ЮЗ - юго-западный, З - западный, СЗ - северо-западный.
Видимость - горизонтальная дальность видимости в метрах или километрах. При видимости от 1 до 10 км при отсутствии осадков обычно наблюдается дымка, при ухудшении видимости до 1 км и менее - туман. В сухую погоду видимость может ухудшаться дымом, пылью или мглою.
Явления - указаны атмосферные явления, наблюдавшиеся в срок или в последний час перед сроком; фигурными скобками обозначены явления, наблюдавшиеся между сроками (за 1-3 часа до срока); квадратными скобками обозначены град или гололедные отложения с указанием их диаметра в мм.
Облачность - указаны через наклонную черту общая и нижняя облачность в баллах и высота нижней границы облаков в метрах; квадратными скобками обозначены формы облаков: Ci - перистые, Cs - перисто-слоистые, Cc - перисто-кучевые, Ac - высококучевые, As - высокослоистые, Sc - слоисто-кучевые, Ns - слоисто-дождевые, Cu - кучевые, Cb - кучево-дождевые. Подробнее классификацию облаков см. в Атласе облаков (PDF).
T - Температура воздуха - температура, измеренная на высоте 2 м над землей.
Td - Температура точки росы - температура, при понижении до которой содержащийся в воздухе водяной пар достигнет насыщения.
f - Относительная влажность воздуха - влажноcть воздуха, измеренная на высоте 2 м над землей.
Te - Эффективная температура - температура, которую ощущает одетый по сезону человек в тени. Характеристика душности погоды. При расчете учитывается влияние влажности воздуха и скорости ветра на теплоощущения человека.
Tes - Эффективная температура на солнце - температура, которую ощущает человек, с поправкой на солнечный нагрев. Характеристика знойности погоды. Зависит от высоты солнца над горизонтом, облачности и скорости ветра. Ночью, в пасмурную погоду, а также при ветре 12 м/с и более поправка равна нулю.
P - Атмосферное давление - приведенное к уровню моря атмосферное давление.
Po - Атмосферное давление - измеренное на уровне метеостанции атмосферное давление.
Tmin - Минимальная температура - минимум температуры воздуха на высоте 2 м над землей.
Tmax - Максимальная температура - максимум температуры воздуха на высоте 2 м над землей.
R - Количество осадков - Количество выпавших осадков за период времени, мм. При наведении курсора мыши на число - период времени, за который выпало указанное количество осадков.
R24 - Количество осадков - Количество выпавших осадков за 24 часа, мм.
S - Снежный покров - Высота снежного покрова, см. При наведении курсора мыши на число - состояние снежного покрова и степень покрытия местности в баллах.